Regional Weather Roundup
Issued by NWS Wakefield, VA

Home | Current Version | Previous Version | Graphics & Text | Print | Product List | Glossary On
Versions: 1 2 3 4 5 6 7 8 9 10 11 12 13 14 15 16 17 18 19 20 21 22 23 24 25 26 27 28 29 30 31 32 33 34 35 36 37 38 39 40 41 42 43 44 45 46 47 48 49 50
000
ASUS41 KAKQ 010710
RWRAKQ

REGIONAL WEATHER ROUNDUP
NATIONAL WEATHER SERVICE WAKEFIELD VA
300 AM EDT FRI AUG 01 2014

Note: "fair" indicates few or no clouds below 12,000 feet with no
significant weather and/or obstructions to visibility. * = Denotes
station may not report precipitation (e.g., rain,snow,etc.),
thunder or fog.

VAZ042-051-052>054-056-010800-
NORTHERN VIRGINIA

CITY           SKY/WX    TMP DP  RH WIND       PRES   REMARKS
WASH NATIONAL  CLOUDY    77  67  71 S7        30.14F
DULLES         CLOUDY    71  66  84 S5        30.14S
FORT BELVOIR   CLOUDY    68  66  93 SE1       30.14F
QUANTICO       CLOUDY    74  66  76 S8        30.14F
FREDERICKSBRG* CLOUDY    73  67  82 S3        30.14S
STAFFORD*      CLOUDY    69  69 100 CALM      30.18S
WARRENTON      CLOUDY    73  71  95 CALM      30.13F
CULPEPER*      CLOUDY   N/A N/A N/A CALM      30.14S
MANASSAS*      CLOUDY    72  70  94 S3        30.14S
LEESBURG*      MOCLDY    68  66  94 CALM      30.15R
WINCHESTER     MOCLDY    63  61  94 CALM      30.13F
$$

VAZ048-049-060>072-079>083-010800-
CENTRAL AND SOUTH CENTRAL VIRGINIA...AND NORTH CENTRAL NORTH CAROLINA

CITY           SKY/WX    TMP DP  RH WIND       PRES   REMARKS
RICHMOND       LGT RAIN  72  68  87 S5        30.16F
CHESTERFIELD*  CLOUDY    72  61  68 S5        30.17F
HANOVER        LGT RAIN  72  68  87 CALM      30.17F
TAPPAHANNOCK*  LGT RAIN  73  65  77 S6        30.17F
CHARLOTTSVILLE CLOUDY    70  66  87 CALM      30.14F
ORANGE*        CLOUDY    70  64  83 SE3       30.15F
LOUISA*        CLOUDY    72  66  83 CALM      30.14F
FARMVILLE*     LGT RAIN  70  68  94 CALM      30.13F
SOUTH HILL*    DRIZZLE   72  72 100 CALM      30.19F
ROANOKE RAPIDS CLOUDY    70  68  94 CALM      30.13F
RALEIGH        CLOUDY    70  67  90 NE5       30.13F FOG
$$

VAZ088>098-010800-
SOUTHEAST VIRGINIA

CITY           SKY/WX    TMP DP  RH WIND       PRES   REMARKS
NORFOLK        CLOUDY    74  63  68 CALM      30.16F
VIRGINIA BEACH CLOUDY    72  66  81 CALM      30.15F
NORFOLK NAVAL  CLOUDY    75  64  68 CALM      30.17F
WEST POINT*    CLOUDY    75  65  69 SE3       30.18F
NEWPORT NEWS   LGT RAIN  75  66  73 CALM      30.17F
LANGLEY AFB    CLOUDY    73  67  83 S3        30.16F
FORT EUSTIS    CLOUDY    73  67  82 CALM      30.15F
WILLIAMSBURG*  CLOUDY    75  68  78 S6        30.18S
FRANKLIN*      CLOUDY    68  68 100 CALM      30.15F
WAKEFIELD      LGT RAIN  70  67  90 CALM      30.16F FOG
$$

VAZ020-022-025-037-045-010800-
WESTERN AND SOUTHWEST VIRGINIA

CITY           SKY/WX    TMP DP  RH WIND       PRES   REMARKS
STAUNTON*      CLOUDY    68  62  80 CALM      30.18F
HOT SPRINGS VA CLOUDY    61  52  73 S5        30.27S
LYNCHBURG      LGT RAIN  67  66  97 S3        30.18F
DANVILLE       LGT RAIN  67  64  90 CALM      30.15F
MARTINSVILLE   LGT RAIN  67  67  98 CALM      30.19F
ROANOKE        CLOUDY    68  62  81 E8        30.19S
BLACKSBURG     LGT RAIN  64  64 100 CALM        N/A
DUBLIN*        CLOUDY    63  62  97 CALM      30.20S
MARION*        CLOUDY    63  60  91 E3        30.22S
HILLSVILLE*    DRIZZLE   62  60  95 SE3       30.20F
RICHLANDS*     PTSUNNY   67  57  71 SE3       30.18F
WISE*          PTCLDY    61  61 100 CALM      30.17F
ABINGDON*      CLOUDY    67  60  77 E8        30.15F
$$

MDZ021>025-VAZ099-100-010800-
SOUTHERN MARYLAND AND THE DELMARVA PENINSULA

CITY           SKY/WX    TMP DP  RH WIND       PRES   REMARKS
PATUXENT RIVER CLOUDY    74  66  76 S7        30.15S
BAY BRIDGE APT   N/A     75  68  78 S6        30.15S
LEONARDTOWN    CLOUDY    72  64  78 S3        30.17S
DOVER          CLOUDY    71  68  88 S10       30.15R
GEORGETOWN     MOCLDY    70  66  87 S12       30.18S
EASTON         CLOUDY    74  72  91 S7        30.19S
CAMBRIDGE      CLOUDY    77  68  73 S6        30.16S
SALISBURY      CLOUDY    72  66  81 S3        30.17S
OCEAN CITY     MOCLDY    73  68  84 SW3       30.18S
WALLOPS ISLAND CLOUDY    75  68  78 S10       30.18F
ACCOMACK*        N/A     72  64  78 S5        30.17F
$$

NCZ012>017-030>032-010800-
EASTERN NORTH CAROLINA

CITY           SKY/WX    TMP DP  RH WIND       PRES   REMARKS
ELIZABETH CITY CLOUDY    74  67  78 E6        30.15F
AHOSKIE*       CLOUDY    70  65  85 CALM      30.14F
EDENTON*       CLOUDY    71  66  84 E3        30.14F
CURRITUCK*     CLOUDY    71  63  76 CALM      30.16F
KILL DEVIL HLS CLOUDY    76  68  76 SE5       30.13F
MANTEO         NOT AVBL
CAPE HATTERAS  MOCLDY    79  69  71 E10       30.12F
GOLDSBORO      CLOUDY    73  72  97 NE7       30.08F
WASHINGTON     CLOUDY    70  66  86 E3        30.13
GREENVILLE     CLOUDY    72  68  88 E6        30.13F
NEW BERN       CLOUDY    77  68  73 E5        30.11F
WILMINGTON     TSTM      77  74  90 E13       30.05F
$$

VAZ048-010800-
ELSEWHERE

CITY           SKY/WX    TMP DP  RH WIND       PRES   REMARKS
HARRISBURG PA  PTCLDY    68  63  84 CALM      30.13S
BALTIMORE      CLOUDY    71  66  84 CALM      30.14S
ANNAPOLIS      CLOUDY    74  68  81 S8        30.14S
ANDREWS AFB    CLOUDY    71  67  88 S7        30.14F
WILMINGTON DE  PTCLDY    72  67  84 S3        30.16S
PHILADELPHIA   MOCLDY    72  67  84 S5        30.16F
WILDWOOD NJ*   MOCLDY    72  64  78 S9        30.19R
ATLANTIC CITY  MOCLDY    73  68  84 MISG      30.17S
HENDERSON NC   CLOUDY    69  68  94 CALM      30.14F FOG
GREENSBORO     LGT RAIN  67  66  97 NE7       30.13F
ROCKY MOUNT    CLOUDY    71  67  87 NE5       30.12F
FAYETTEVILLE   CLOUDY    72  69  90 E5        30.07F
CHARLOTTE      TSTM      67  65  93 VRB3      30.11S
$$

VAZ100-010800-
MARINE

STATION/POSITION TIME  TEMP    WIND        PRES    WAVE   SWELL
                       AIR SEA DIR/SP/G            HT/PER HT/PER
                 (UTC) (F)     (DEG/KT/KT) (MB)    (FT/S) (FT/S)
44066 TX TWR #4  0700   74 74  220/ 12/ 12 1022.2S   3/ 7   3/ 7
CAPE MAY NJ      0700   72 76  180/  7/ 11 1021.3R
LEWES DE         0700   73 72  200/  6/ 11 1021.4R
15NM E FENWICK I 0700   75 75              1021.9S   3/ 7
OCEAN-CITY-INLET 0700   72 71  210/  7/  7 1021.4F
WACHAPREAGUE VA  0700   75 79  180/  7/ 10 1021.8S
THOMAS POINT MD  0700   76 78  180/ 14/ 16 1021.1F
GOOSES REEF MD   0700   76     190/ 16/ 17 1021.3S
COVE POINT MD    0700   75     200/ 12/ 15 1021.0S
SOLOMONS ISLAND  0700      80                N/A
BISHOPS HEAD MD  0700   76 78  170/ 13/ 15 1020.9S
PINEY POINT MD   0700          200/ 12/ 13   N/A
POTOMAC MD       0700   76     200/ 12/ 14 1020.7S
CAMBRIDGE MD     0700   75 78  160/  4/ 10 1020.9F
LEWISETTA VA     0700   74 78  210/  7/  9 1021.0F
RAPPAHANNOCK LGT 0700          160/ 11/ 12 1022.1S
STINGRAY PT      0700   77     200/ 12/ 14 1022.0S
YORK RVR RNG VA  0700   76     200/  7/  8 1021.0F
YORKTOWN VA      0700   74 80  180/  3/  3 1021.2F
JAMESTOWN VA     0700   72     160/  6/  8   N/A
DOMINION TERM VA 0700   75     160/  4/  5 1021.4F
KIPTOPEKE VA     0700      80  160/  7/  9   N/A
CHES BAY BRIDGE  0700   76 72  130/  3/  5 1020.7F
CAPE HENRY VA    0700   76     140/  6/  8 1020.1F
WILLOUBY STN VA  0700          160/  4/  5 1020.6F
S CRANEY ISL VA  0700          200/  1/  3 1021.3F
CAPE HENRY BUOY  0700      77                N/A     3/ 8
1ST LANDING BUOY 0700   76     180/  4/  6 1021.2S
CAPE CHARLES BUO 0700      75                N/A     3/ 4
OFFSHORE WE BUOY 0700      78                N/A     3/ 4
64NM E OF VA BCH 0700   78 78  120/  6/  8 1021.0F   3/ 9   2/ 9
DUCK PIER NC     0700   77 77  120/ 10/ 11 1020.1F
44056 DUCK FRF   0700                        N/A     2/ 6
OREGON INLET NC  0700   77 80  100/  6/  9 1020.5F
HATTERAS NC      0700   80 80  110/  8/ 12 1020.3F
DIAMOND SHLS NC  0700          VRB 10/ 14  1019.6F   4/ 5   3/ 5
CAPE LOOKOUT NC  0600   80      90/ 16/ 18 1019.2F
$$


USA.gov is the U.S. government's official web portal to all federal, state and local government web resources and services.